User: anonymous   Login
Location: San Vito
(41.8833°N, 12.9833°E)
Time: 14:13:42
(UTC+00:00)
Language:

Cosmos 1937 Rocket - Orbit

View from above orbital plane
View from above orbital plane
View from above satellite
View from above satellite

Ground track
Ground track

The orbit data is extracted from the following two-line orbital elements,

1 19039U 88029B   20024.86467484  .00000027  00000-0  17602-4 0  9993
2 19039  74.0494 346.8038 0024999 282.9595  76.8768 14.38463135667680
Epoch (UTC): 24 January 2020 20:45:07
Eccentricity: 0.0024999
inclination: 74.0494°
perigee height: 746 km
apogee height: 781 km
right ascension of ascending node: 346.8038°
argument of perigee: 282.9595°
revolutions per day: 14.38463135
mean anomaly at epoch: 76.8768°
orbit number at epoch: 66768

The dashed part of the orbit path shows where the satellite is in the earth's shadow,  

DLR